Home   Weather   Rawalpindi   Past weeks

Flag for Pakistan Past Weather in Rawalpindi, Pakistan — Yesterday and Last 2 Weeks

Now
52 °F

Scattered clouds.


Feels Like: 52 °F
Forecast: 46 / 65 °F
Wind: No wind

Location: Islamabad Airport

Current Time: Jan 22, 2017 at 9:14:23 am

Latest Report: Jan 22, 2017 at 8:30 am


Visibility: 1 mi

Pressure: 30.27 "Hg (28.50 "Hg at 501m altitude)

Humidity: 62%

Dew Point: 39 °F

Location of RawalpindiLocation

Past Weather in Rawalpindi — Graph

°F

Rawalpindi Temperature Yesterday

Maximum temperature yesterday: 66 °F (at 2:00 pm)
Minimum temperature yesterday: 45 °F (at 5:00 am)
Average temperature yesterday: 55 °F

High & Low Weather Summary for the Past Weeks

 TemperatureHumidityPressure
High66 °F (Jan 21, 2:00 pm)100% (Jan 18, 10:00 am)30.39 "Hg (Jan 18, 10:00 am)
Low36 °F (Jan 11, 5:00 am)27% (Jan 13, 1:00 pm)29.89 "Hg (Jan 7, 2:00 pm)
Average49 °F72%30.11 "Hg
* Reported Jan 7 8:00 am — Jan 22 8:00 am, Rawalpindi, Weather by CustomWeather, © 2017

Note: Actual official high and low records may vary slightly from our data, if they occured in-between our weather recording intervals... More about our weather records

Advertising

Rawalpindi Weather History for the Previous 24 Hours

Scroll right to see more
 ConditionsComfort  
Time TempWeatherWind HumidityBarometerVisibility
8:00 am
Sun, Jan 22
52 °FScattered clouds.No wind62%30.27 "Hg1 mi
7:30 am48 °FScattered clouds.No wind76%30.24 "Hg1 mi
7:00 am48 °FPassing clouds.No wind76%30.24 "Hg2 mi
6:30 am48 °FPassing clouds.5 mph76%30.21 "Hg2 mi
6:00 am48 °FPassing clouds.5 mph76%30.21 "Hg2 mi
5:30 am50 °FPartly cloudy.5 mph71%30.21 "Hg2 mi
5:00 am50 °FPartly cloudy.5 mph71%30.21 "Hg2 mi
4:30 am50 °FPassing clouds.7 mph71%30.18 "Hg2 mi
4:00 am50 °FPassing clouds.7 mph71%30.18 "Hg2 mi
3:30 am52 °FPassing clouds.7 mph67%30.18 "Hg2 mi
2:30 am54 °FPassing clouds.7 mph63%30.15 "Hg2 mi
2:00 am54 °FPassing clouds.7 mph63%30.15 "Hg2 mi
1:30 am54 °FPassing clouds.7 mph63%30.15 "Hg2 mi
1:00 am54 °FPassing clouds.7 mph63%30.15 "Hg2 mi
12:30 am54 °FPassing clouds.14 mph63%30.15 "Hg2 mi
12:00 am54 °FPassing clouds.14 mph63%30.15 "Hg2 mi
11:30 pm
Sat, Jan 21
54 °FPassing clouds.14 mph63%30.15 "Hg2 mi
11:00 pm54 °FPassing clouds.14 mph63%30.15 "Hg2 mi
10:30 pm54 °FPassing clouds.14 mph63%30.18 "Hg2 mi
10:00 pm54 °FPassing clouds.14 mph63%30.18 "Hg2 mi
9:30 pm55 °FPassing clouds.7 mph59%30.18 "Hg2 mi
9:00 pm55 °FPassing clouds.7 mph59%30.18 "Hg2 mi
8:30 pm57 °FPassing clouds.7 mph55%30.18 "Hg2 mi
8:00 pm57 °FPassing clouds.7 mph55%30.18 "Hg2 mi
7:00 pm57 °FPassing clouds.14 mph59%30.18 "Hg2 mi
6:30 pm59 °FPassing clouds.14 mph51%30.15 "Hg2 mi
6:00 pm59 °FPassing clouds.14 mph51%30.15 "Hg2 mi
5:30 pm63 °FPassing clouds.14 mph45%30.15 "Hg2 mi
5:00 pm63 °FScattered clouds.14 mph45%30.12 "Hg2 mi
4:30 pm66 °FScattered clouds.14 mph37%30.12 "Hg1 mi
4:00 pm66 °FScattered clouds.5 mph37%30.12 "Hg1 mi
3:30 pm66 °FScattered clouds.5 mph43%30.12 "Hg1 mi
3:00 pm66 °FScattered clouds.5 mph43%30.12 "Hg1 mi
2:30 pm66 °FScattered clouds.5 mph40%30.15 "Hg1 mi
2:00 pm66 °FScattered clouds.5 mph40%30.15 "Hg1 mi
1:30 pm64 °FScattered clouds.5 mph43%30.18 "Hg2 mi
1:00 pm64 °FScattered clouds.5 mph43%30.18 "Hg2 mi
12:30 pm61 °FScattered clouds.5 mph45%30.18 "Hg2 mi
12:00 pm61 °FScattered clouds.5 mph45%30.21 "Hg2 mi
11:30 am55 °FPartly sunny.5 mph59%30.21 "Hg1 mi
11:00 am55 °FPartly sunny.5 mph59%30.21 "Hg1 mi
10:30 am54 °FPartly sunny.5 mph67%30.21 "Hg1 mi
10:00 am54 °FPartly sunny.5 mph67%30.21 "Hg1 mi
9:30 am48 °FScattered clouds.No wind76%30.18 "Hg1 mi
9:00 am48 °FScattered clouds.No wind76%30.18 "Hg1 mi
Weather by CustomWeather, © 2017

See weather overviewHow to use our weather pages